Location: Altmatt
(47.1333°N, 8.7000°E)
Time: 08:34:06
(UTC+00:00)

Cosmos 2369 Rocket - Pass Details

Date: 13 July 2020
Orbit: 830 x 851 km, 71.0° (Epoch: 04 August)

Event Time Altitude Azimuth Distance (km) Brightness Sun altitude
Rises 21:34:42 0° 335° (NNW) 3,385 7.2 -16.4°
Reaches altitude 10° 21:37:13 10° 341° (NNW) 2,449 5.9 -16.6°
Maximum altitude 21:42:40 50° 57° (ENE) 1,059 2.7 -17.0°
Enters shadow 21:45:56 23° 122° (ESE) 1,699 3.3 -17.2°
